Find TAURUS 3

NORAD ID: 66296 Int'l Des: NNA 2025-248 Owner: TURKS Country: TR operational
LEOCIRCULAR

当前视图

正在加载3D地球...

About TAURUS 3

TAURUS 3 (NORAD 66296) is a satellite launched Nov 2, 2025 by TURKS of TR. It operates in LEO, CIRCULAR orbit with a mass of 0.45 kg.

即将过境

Passes for default location (London). Set your location on the main map for personalized predictions.

高度历史

Loading altitude history...

两行轨道根数

1 66296U 25248D 26194.40934979 .00004394 00000-0 20117-3 0 9991
2 66296 45.4051 339.4499 0005767 223.3013 136.7422 15.22011386 38522
Epoch: Jul 13, 2026 • Age: 21 hours

当前状态

高度 506.4 km
远地点 / 近地点 N/A
速度 7.61 km/s
星下点 40.79°N, 1.57°E
发射日期 Nov 2, 2025
运行时间 0.6 years
类型 other

技术详情

分类 Payload
质量 0.45 kg
干质量 0.45 kg
总质量 0.45 kg
长度 0.03 m
直径 0.10 m
跨度 0.10 m
形状 Box
制造商 UNKTR
平台类型 Cubesat 0.25U
阶段状态 In Orbit
所有者/国家 TURKS/TR

Most Searched